Owen Roberts, Cayman Islands

6:48 PM EST on August 30, 2016 (GMT -0500)
Roberts International

Weather History for MWCR - September, 2013

Change the Weather History Date:

Saturday, September 28, 2013

  Actual Average Record
Temperature  
Mean Temperature 84 °F -  
Max Temperature 89 °F 85 °F 91 °F (2004)
Min Temperature 78 °F 77 °F 73 °F (2012)
Cooling Degree Days 18    
Growing Degree Days 34 (Base 50)    
Moisture  
Dew Point 78 °F    
Average Humidity 82    
Maximum Humidity 100    
Minimum Humidity 70    
Precipitation  
Precipitation 0.00 in - - ()
Sea Level Pressure  
Sea Level Pressure 29.91 in    
Wind  
Wind Speed 4 mph ()    
Max Wind Speed 6 mph    
Max Gust Speed -    
Visibility 6.2 miles    
Events      
Averages and records for this station are not official NWS values.
T = Trace of Precipitation, MM = Missing Value Source: Averaged Metar Reports

Daily Weather History Graph

Daily Weather History Graph

Search for Another Location

Airport or City:

Trip Planner

Search our weather history database for the weather conditions in past years. The results will help you decide how hot, cold, wet, or windy it might be!

Date:

Astronomy

Sep. 28, 2013 Rise Set
Actual Time 6:15 AM EST 6:16 PM EST
Civil Twilight 5:53 AM EST 6:37 PM EST
Nautical Twilight 5:28 AM EST 7:03 PM EST
Astronomical Twilight 5:02 AM EST 7:28 PM EST
Moon 12:42 AM EST (9/28) 1:55 PM EST (9/28)
Length of Visible Light 12h 44m
Length of Day
12h 00m
Waning Crescent, 36% of the Moon is Illuminated
Sep 28
Waning Crescent
Oct 4
New
Oct 11
First Quarter
Oct 18
Full
Oct 26
Last Quarter

Hourly Weather History & Observations

Time (EST) Temp. Heat Index Dew Point Humidity Pressure Visibility Wind Dir Wind Speed Gust Speed Precip Events Conditions
6:00 AM 78.8 °F - 78.8 °F 100% 29.89 in 6.2 mi SSE 2.3 mph - N/A   Partly Cloudy
7:00 AM 80 °F - 78 °F 90% 29.91 in 6 mi ESE 3.5 mph - -   Scattered Clouds
7:00 AM 80.6 °F 87.1 °F 77.0 °F 89% 29.89 in 6.2 mi ESE 3.5 mph - N/A   Partly Cloudy
8:00 AM 84.2 °F 96.1 °F 78.8 °F 84% 29.92 in 6.2 mi ESE 3.5 mph - N/A   Partly Cloudy
9:00 AM 86.0 °F 99.3 °F 78.8 °F 79% 29.95 in 6.2 mi East 4.6 mph - N/A   Partly Cloudy
10:00 AM 87.8 °F 102.5 °F 78.8 °F 75% 29.95 in 6.2 mi NNE 5.8 mph - N/A   Scattered Clouds
11:00 AM 86.0 °F 96.9 °F 77.0 °F 74% 29.95 in 6.2 mi NE 5.8 mph - N/A   Scattered Clouds
12:00 PM 86.0 °F 96.9 °F 77.0 °F 74% 29.95 in 6.2 mi SE 5.8 mph - N/A   Scattered Clouds
1:00 PM 84.2 °F 94.1 °F 77.0 °F 79% 29.92 in 6.2 mi ESE 5.8 mph - N/A   Partly Cloudy
2:00 PM 84.2 °F 92.3 °F 75.2 °F 74% 29.89 in 6.2 mi SSE 4.6 mph - N/A   Partly Cloudy
2:50 PM 87.8 °F 99.7 °F 77.0 °F 70% 29.86 in 6.2 mi Variable 3.5 mph - N/A   Partly Cloudy
3:50 PM 86.0 °F 99.3 °F 78.8 °F 79% 29.86 in 6.2 mi NE 5.8 mph - N/A   Partly Cloudy
5:00 PM 86.0 °F 99.3 °F 78.8 °F 79% 29.89 in 6.2 mi NE 5.8 mph - N/A   Scattered Clouds
5:50 PM 86.0 °F 99.3 °F 78.8 °F 79% 29.89 in 6.2 mi NE 5.8 mph - N/A   Partly Cloudy
6:51 PM 84.2 °F 96.1 °F 78.8 °F 84% 29.89 in 6.2 mi Variable 3.5 mph - N/A   Partly Cloudy
7:00 PM 84 °F - 78 °F 78% 29.91 in 6 mi 3.5 mph - -   Scattered Clouds
7:53 PM 84.2 °F 96.1 °F 78.8 °F 84% 29.92 in 6.2 mi Variable 3.5 mph - N/A   Partly Cloudy
8:50 PM 82.4 °F 92.4 °F 78.8 °F 89% 29.95 in 6.2 mi ESE 3.5 mph - N/A   Partly Cloudy
9:55 PM 80.6 °F 88.1 °F 78.8 °F 94% 29.95 in 6.2 mi East 2.3 mph - N/A   Partly Cloudy